Weather Roundup
Issued by NWS Chicago, IL

Home | Current Version | Previous Version | Graphics & Text | Print | Product List | Glossary On
Versions: 1 2 3 4 5 6 7 8 9 10 11 12 13 14 15 16 17 18 19 20 21 22 23 24 25 26 27 28 29 30 31 32 33 34 35 36 37 38 39 40 41 42 43 44 45 46 47 48 49 50
000
NZUS59 KLOT 192108
HRRLOT

CHICAGO AREA WEATHER ROUNDUP
NATIONAL WEATHER SERVICE CHICAGO/ROMEOVILLE IL
300 PM CST SUN NOV 19 2017

NOTE: "FAIR" INDICATES FEW OR NO CLOUDS BELOW 12,000 FEET WITH NO
SIGNIFICANT WEATHER AND/OR OBSTRUCTIONS TO VISIBILITY.

* THESE STATIONS ARE NOT UNDER NWS QUALITY CONTROL. THEY ALSO MAY NOT
  REPORT WEATHER SUCH AS PRECIPITATION OR FOG.

ILZ005-006-012>014-019>023-192200-
NORTHEAST ILLINOIS

CITY           SKY/WX    TMP DP  RH WIND       PRES   REMARKS
OHARE          PTSUNNY   34  17  50 W14       30.04R WCI  25
MIDWAY         PTSUNNY   35  17  47 W13G18    30.05R WCI  26
AURORA         SUNNY     34  20  56 W15       30.06S WCI  24
LANSING*       SUNNY     35  22  58 W13       30.04F WCI  26
JOLIET*        SUNNY     36  20  53 W10       30.07S
WAUKEGAN       SUNNY     34  13  41 W8G20     30.00S WCI  27
DUPAGE AIRPORT SUNNY     34  19  54 W14       30.04S WCI  25
WHEELING       PTSUNNY   35  16  45 W10       30.04R WCI  27
KANKAKEE*      MOSUNNY   34  21  60 W14       30.08F WCI  24
MORRIS*        SUNNY     33  20  59 W14       30.07R WCI  23
LEWIS AIRPORT* SUNNY     34  22  61 W15       30.06S WCI  24
NORTHERLY ISL    N/A     35  16  46 W8          N/A  WCI  29
$$

WIZ051-052-058>065-066-070>072-192200-
SOUTHEAST WISCONSIN

CITY           SKY/WX    TMP DP  RH WIND       PRES   REMARKS
MILWAUKEE      PTSUNNY   34  12  40 W9G20     29.99S WCI  27
KENOSHA*       SUNNY     34  15  46 W15       30.00F WCI  24
RACINE*        MOSUNNY   34  14  43 W14G22    30.01S WCI  25
BURLINGTON     SUNNY     34  19  54 W12G18    30.01R WCI  25
WAUKESHA       SUNNY     28  12  50 W12G21    30.00R WCI  18
WEST BEND      SUNNY     30  10  43 W14G21    29.97S WCI  20
$$

INZ001>003-010>013-019-020-192200-
NORTHWEST INDIANA

CITY           SKY/WX    TMP DP  RH WIND       PRES   REMARKS
GARY*          PTSUNNY   36  16  44 W12G23    30.05S
MICHIGAN CITY* NOT AVBL
RENSSELAER*    NOT AVBL
VALPARAISO     SUNNY     36  19  50 W13       30.03S
$$

LMZ740>746-192200-
SOUTHERN LAKE MICHIGAN

STATION/POSITION TIME  SKY/WX   TEMP WIND        PRES    VSBY
                                AIR  DIR/SP/G
                 (UTC)          (F)  (DEG/KT/KT) (MB)    (MI)
HARRISON CRIB    2040            35  280/ 17/ 19   N/A
BURNHAM HARBOR   2100            35  240/  6/ 14   N/A
CALUMET HARBOR   2048            35  260/  7/ 12 1016.5S
BURNS HARBOR     2040            35  270/ 12/ 17 1017.6R
MICHIGAN CITY    2040            34  260/ 18/ 20   N/A
$$

ABBREVIATIONS USED IN REMARKS
   TC - TEMPERATURE IN CELSIUS
  WCI - WIND CHILL INDEX
   HX - HEAT INDEX
  VSB - VISIBILITY
$$




USA.gov is the U.S. government's official web portal to all federal, state and local government web resources and services.